AirNav   Air Wisconsin Up To $57,000 Bonus
 
 926 users online  

F95 Calhoun County Airport
Blountstown, Florida, USA

GOING TO BLOUNTSTOWN?


FAA INFORMATION EFFECTIVE 26 MARCH 2020

Location

FAA Identifier: F95
Lat/Long: 30-29-13.9550N 085-06-49.6650W
30-29.232583N 085-06.827750W
30.4872097,-85.1137958
(estimated)
Elevation: 122 ft. / 37 m (estimated)
Variation: 02W (1995)
From city: 5 miles NW of BLOUNTSTOWN, FL
Time zone: UTC -5 (UTC -6 during Standard Time)
Zip code: 32421

Airport Operations

Airport use: Open to the public
Activation date: 12/1996
Control tower: no
ARTCC: JACKSONVILLE CENTER
FSS: GAINESVILLE FLIGHT SERVICE STATION
NOTAMs facility: GNV (NOTAM-D service available)
Attendance: MON-FRI 0700-1500
Wind indicator: lighted
Segmented circle: yes
Lights: ACTVT MIRL RY 18/36 AND PAPI RYS 18 & 36 - CTAF.
Beacon: white (unlighted land airport)
Operates sunset to sunrise.

Airport Communications

CTAF: 122.9
WX AWOS-AV: 119.350 (850-674-1347)

Nearby radio navigation aids

VOR radial/distance  VOR name  Freq  Var
MAIr178/17.9MARIANNA VORTAC114.0000E
SZWr262/38.5SEMINOLE VORTAC117.5002E

 
NDB name  Hdg/Dist  Freq  Var  ID
SOYYA168/23.832902WSMY ... -- -.--
LYNNE078/35.927804WPFN .--. ..-. -.

Airport Services

Fuel available: 100LL JET-A
Parking: hangars and tiedowns
Airframe service: MAJOR
Powerplant service: MAJOR
Bottled oxygen: NONE
Bulk oxygen: NONE

Runway Information

Runway 18/36

Dimensions: 3100 x 60 ft. / 945 x 18 m
Surface: asphalt, in good condition
Weight bearing capacity: 
PCN 13 /F/A/Y/T
Runway edge lights: medium intensity
RUNWAY 18  RUNWAY 36
Latitude: 30-29.488333N30-28.976833N
Longitude: 085-06.829333W085-06.826167W
Elevation: 120.9 ft.118.1 ft.
Traffic pattern: leftleft
Runway heading: 182 magnetic, 180 true002 magnetic, 360 true
Markings: nonprecision, in good conditionnonprecision, in good condition
Visual slope indicator: 2-light PAPI on left (3.00 degrees glide path)2-light PAPI on left (3.00 degrees glide path)
Obstructions: 68 ft. trees, 1547 ft. from runway, 40 ft. left of centerline, 20:1 slope to clear
APPROACH SLOPE 20:1 TO THE DSPLCD THLD DUE TO 88 FT TREE 185 FT L OF CNTRLN AND 1600 FT FRM RY END.
15 ft. road, 425 ft. from runway, 125 ft. right of centerline, 15:1 slope to clear

Airport Ownership and Management from official FAA records

Ownership: Publicly-owned
Owner: CALHOUN COUNTY
20589 CENTRAL AVENUE EAST
BLOUNTSTOWN, FL 32424
Phone 850-674-4545
Manager: ROBERT FLECK
16701 AGRIPARK ROAD
ALTHA, FL 32421
Phone (850) 674-2499
CELL: 850-643-7582

Airport Operational Statistics

Aircraft based on the field: 11
Single engine airplanes: 11
    
Aircraft operations: avg 38/week *
50% transient general aviation
50% local general aviation
* for 12-month period ending 05 March 2018

Additional Remarks

FOR CD CTC TYNDALL APCH AT 850-283-2900 OR 850-283-3353, WHEN APCH CLSD CTC JACKSONVILLE ARTCC AT 904-845-1592.

Instrument Procedures

There are no published instrument procedures at F95.

Some nearby airports with instrument procedures:

KMAI - Marianna Municipal Airport (21 nm N)
2J9 - Quincy Municipal Airport (30 nm E)
1J0 - Tri-County Airport (33 nm NW)
17J - Donalsonville Municipal Airport (33 nm N)
KPAM - Tyndall Air Force Base (35 nm SW)
 
Loc | Ops | Rwys | IFR | FBO | Links
Com | Nav | Svcs | Stats | Notes

Continental Services
AirBoss

 
Area around F95 (Calhoun County Airport)
 
Road maps at: MapQuest Bing Google
 
Aerial photo
WARNING: Photo may not be current or correct
Aerial photo of F95 (Calhoun County Airport)
Photo by Brian Christopher
Photo taken 08-Aug-2010

Do you have a better or more recent aerial photo of Calhoun County Airport that you would like to share? If so, please send us your photo.

 
Sectional chart

 
Airport distance calculator
Flying to Calhoun County Airport? Find the distance to fly.

From to F95

Sunrise and sunset
Times for 02-Apr-2020
 Local
(UTC-5)
 Zulu
(UTC)
Morning civil twilight06:0411:04
Sunrise06:2811:28
Sunset18:5923:59
Evening civil twilight19:2400:24

Current date and time
Zulu (UTC)  02-Apr-2020 13:54:44
Local (UTC-5)  02-Apr-2020 08:54:44
 
METAR
KMAI 
21nm N 
021253Z AUTO 04005KT 10SM CLR 11/06 A3010 RMK AO2 SLP190 T01110056
K2J9 
30nm E 
021335Z AUTO VRB06KT 10SM CLR 12/06 A3011 RMK AO2
K1J0 
33nm NW 
021258Z AUTO 07003KT 10SM CLR 12/07 A3011 RMK AO2 SLP181 T01170067
K17J 
33nm N 
021335Z AUTO 06006KT 10SM CLR 12/07 A3011 RMK AO2 T01220066
KPAM 
34nm SW 
021256Z AUTO 05006KT 10SM CLR 13/07 A3008 RMK AO2 SLP189 T01280070 $
KECP 
36nm W 
021253Z 01006KT 10SM CLR 11/06 A3008 RMK AO2 SLP197 T01110061
KBGE 
38nm NE 
021335Z AUTO 03006KT 10SM CLR 12/06 A3011 RMK AO2 T01200060
KTLH 
40nm E 
021253Z 02004KT 10SM FEW180 FEW250 13/06 A3008 RMK AO2 SLP184 T01280061
TAF
KPAM 
34nm SW 
021100Z 0211/0317 04006KT 9999 SKC QNH2996INS TX24/0220Z TN12/0211Z
KECP 
36nm W 
021120Z 0212/0312 35004KT P6SM SKC
KTLH 
40nm E 
021120Z 0212/0312 01004KT P6SM SKC
NOTAMs
Click for the latest NOTAMs
NOTAMs are issued by the DoD/FAA and will open in a separate window not controlled by AirNav.

 

 
 

FBO, Fuel Providers, and Aircraft Ground Support

  
 Business Name 
 
 Contact 
 
 Services / Description 
 
Fuel Prices
 
Comments
  
Calhoun County Airport 850-674-2499
no information available

If you are affiliated with Calhoun County Airport and would like to show here your services, contact info, web link, logo, and more, click here
100LL Jet A
SS $4.24 $3.75 
 Updated 24-Mar-2020
 
   1 read write
SS=Self service
Update Fuel Prices
 

Would you like to see your business listed on this page?

 If your business provides an interesting product or service to pilots, flight crews, aircraft, or users of the Calhoun County Airport, you should consider listing it here.  To start the listing process, click on the button below
 
Add a business
 

Other Pages about Calhoun County Airport

Update a link
 
Copyright © AirNav, LLC. All rights reserved. Privacy Policy  Contact